| time (UTC) | temp F | wind direction | speed MPH | gust MPH | rain 1hr in | rain 24hr in | rain mn in | humidity % | barometer mb |
| 20260905234253 | 86 | 7 | 0.0 | 0.0 | 0.00 | 0.22 | 0.22 | 80 | 1010.9 |
| 20260905233748 | 87 | 9 | 0.0 | 0.0 | 0.00 | 0.22 | 0.22 | 76 | 1011.1 |
| 20260905233247 | 87 | 7 | 0.0 | 0.0 | 0.00 | 0.22 | 0.22 | 75 | 1011.3 |
| 20260905232742 | 87 | 9 | 0.0 | 0.0 | 0.00 | 0.22 | 0.22 | 76 | 1011.2 |
| 20260905232238 | 87 | 8 | 0.0 | 0.0 | 0.00 | 0.22 | 0.22 | 76 | 1011.4 |
| 20260905231734 | 88 | 4 | 0.0 | 0.0 | 0.00 | 0.22 | 0.22 | 78 | 1011.4 |
| 20260905231229 | 89 | 12 | 0.0 | 0.0 | 0.00 | 0.22 | 0.22 | 75 | 1011.3 |
| 20260905230725 | 89 | 13 | 0.0 | 0.0 | 0.00 | 0.22 | 0.22 | 73 | 1011.2 |
| 20260905230222 | 89 | 31 | 0.0 | 0.0 | 0.00 | 0.22 | 0.22 | 72 | 1011.1 |
| 20260905225722 | 90 | 56 | 0.0 | 0.0 | 0.00 | 0.22 | 0.22 | 70 | 1011.1 |
| 20260905225217 | 90 | 10 | 0.0 | 0.0 | 0.00 | 0.22 | 0.22 | 69 | 1011.1 |
| 20260905224716 | 90 | 8 | 0.0 | 0.0 | 0.00 | 0.22 | 0.22 | 70 | 1011.1 |
| 20260905224212 | 90 | 1 | 0.0 | 0.0 | 0.00 | 0.22 | 0.22 | 69 | 1011.0 |
| 20260905223708 | 90 | 19 | 0.0 | 0.0 | 0.00 | 0.22 | 0.22 | 70 | 1010.9 |
| 20260905223205 | 90 | 7 | 0.0 | 1.0 | 0.00 | 0.22 | 0.22 | 70 | 1011.0 |
| 20260905222700 | 90 | 11 | 0.0 | 1.0 | 0.00 | 0.22 | 0.22 | 68 | 1010.9 |
| 20260905222159 | 91 | 10 | 0.0 | 1.0 | 0.00 | 0.22 | 0.22 | 66 | 1010.9 |
| 20260905221655 | 91 | 355 | 2.0 | 2.0 | 0.00 | 0.22 | 0.22 | 66 | 1011.1 |
| 20260905221152 | 91 | 346 | 1.0 | 2.0 | 0.00 | 0.22 | 0.22 | 67 | 1010.8 |
| 20260905220647 | 91 | 353 | 2.0 | 3.0 | 0.00 | 0.22 | 0.22 | 64 | 1011.0 |
| 20260905220143 | 92 | 335 | 1.0 | 2.0 | 0.00 | 0.22 | 0.22 | 61 | 1011.0 |
| 20260905215643 | 92 | 329 | 1.0 | 2.0 | 0.00 | 0.22 | 0.22 | 63 | 1010.8 |
| 20260905215139 | 91 | 309 | 3.0 | 5.0 | 0.00 | 0.22 | 0.22 | 62 | 1011.0 |
| 20260905214634 | 91 | 349 | 2.0 | 5.0 | 0.00 | 0.22 | 0.22 | 65 | 1010.9 |
| 20260905214129 | 91 | 340 | 3.0 | 5.0 | 0.00 | 0.22 | 0.22 | 60 | 1011.2 |
| 20260905213625 | 92 | 344 | 4.0 | 3.0 | 0.00 | 0.22 | 0.22 | 62 | 1011.0 |
| 20260905213120 | 92 | 339 | 4.0 | 5.0 | 0.00 | 0.22 | 0.22 | 62 | 1011.0 |
| 20260905212615 | 92 | 263 | 3.0 | 3.0 | 0.00 | 0.22 | 0.22 | 60 | 1011.0 |
| 20260905212114 | 92 | 344 | 5.0 | 6.0 | 0.00 | 0.22 | 0.22 | 62 | 1011.1 |
| 20260905211609 | 92 | 327 | 4.0 | 5.0 | 0.00 | 0.22 | 0.22 | 60 | 1010.9 |
| 20260905211105 | 94 | 345 | 3.0 | 5.0 | 0.00 | 0.22 | 0.22 | 59 | 1010.9 |
| 20260905210601 | 95 | 270 | 2.0 | 2.0 | 0.00 | 0.22 | 0.22 | 55 | 1011.1 |
| 20260905210056 | 95 | 241 | 1.0 | 2.0 | 0.00 | 0.22 | 0.22 | 58 | 1011.0 |
| 20260905205555 | 94 | 274 | 1.0 | 1.0 | 0.00 | 0.22 | 0.22 | 58 | 1011.0 |
| 20260905205055 | 94 | 349 | 3.0 | 3.0 | 0.00 | 0.22 | 0.22 | 58 | 1011.2 |
| 20260905204549 | 93 | 268 | 4.0 | 7.0 | 0.00 | 0.22 | 0.22 | 57 | 1011.2 |
| 20260905204044 | 94 | 311 | 2.0 | 3.0 | 0.00 | 0.22 | 0.22 | 57 | 1011.1 |
| 20260905203544 | 92 | 324 | 1.0 | 2.0 | 0.00 | 0.22 | 0.22 | 58 | 1011.3 |
| 20260905203040 | 92 | 350 | 2.0 | 5.0 | 0.00 | 0.22 | 0.22 | 57 | 1011.4 |
| 20260905202535 | 94 | 340 | 3.0 | 5.0 | 0.00 | 0.22 | 0.22 | 59 | 1011.4 |
| 20260905202031 | 95 | 265 | 4.0 | 5.0 | 0.00 | 0.22 | 0.22 | 58 | 1011.4 |
| 20260905201526 | 93 | 317 | 0.0 | 2.0 | 0.00 | 0.22 | 0.22 | 58 | 1011.6 |
| 20260905201025 | 92 | 325 | 3.0 | 3.0 | 0.00 | 0.22 | 0.22 | 58 | 1011.6 |
| 20260905200521 | 94 | 261 | 2.0 | 5.0 | 0.00 | 0.22 | 0.22 | 56 | 1011.7 |
| 20260905200020 | 92 | 341 | 3.0 | 3.0 | 0.00 | 0.22 | 0.22 | 57 | 1011.7 |
| 20260905195514 | 93 | 340 | 3.0 | 2.0 | 0.00 | 0.22 | 0.22 | 56 | 1011.8 |
| 20260905195010 | 92 | 336 | 2.0 | 2.0 | 0.00 | 0.22 | 0.22 | 56 | 1012.0 |
| 20260905194504 | 93 | 343 | 3.0 | 5.0 | 0.00 | 0.22 | 0.22 | 57 | 1011.9 |
| 20260905194004 | 94 | 262 | 2.0 | 3.0 | 0.00 | 0.22 | 0.22 | 58 | 1012.1 |
| 20260905193458 | 93 | 322 | 1.0 | 2.0 | 0.00 | 0.22 | 0.22 | 52 | 1012.1 |
| 20260905192953 | 92 | 310 | 2.0 | 3.0 | 0.00 | 0.22 | 0.22 | 57 | 1012.0 |
| 20260905192448 | 93 | 307 | 3.0 | 3.0 | 0.00 | 0.22 | 0.22 | 58 | 1012.0 |
| 20260905191944 | 94 | 341 | 2.0 | 1.0 | 0.00 | 0.22 | 0.22 | 58 | 1012.3 |
| 20260905191438 | 93 | 227 | 1.0 | 3.0 | 0.00 | 0.22 | 0.22 | 55 | 1012.4 |
| 20260905190937 | 93 | 159 | 2.0 | 2.0 | 0.00 | 0.22 | 0.22 | 57 | 1012.3 |
| 20260905190435 | 94 | 290 | 1.0 | 3.0 | 0.00 | 0.22 | 0.22 | 56 | 1012.5 |
| 20260905185934 | 94 | 349 | 1.0 | 2.0 | 0.00 | 0.22 | 0.22 | 54 | 1012.6 |
| 20260905185430 | 92 | 348 | 1.0 | 2.0 | 0.00 | 0.22 | 0.22 | 57 | 1012.4 |
| 20260905184928 | 93 | 169 | 2.0 | 2.0 | 0.00 | 0.22 | 0.22 | 56 | 1012.6 |
| 20260905184423 | 93 | 94 | 1.0 | 1.0 | 0.00 | 0.22 | 0.22 | 56 | 1012.8 |
| 20260905183922 | 93 | 208 | 0.0 | 1.0 | 0.00 | 0.22 | 0.22 | 56 | 1012.6 |
| 20260905183416 | 92 | 266 | 2.0 | 3.0 | 0.00 | 0.22 | 0.22 | 57 | 1012.8 |
| 20260905182912 | 91 | 234 | 4.0 | 5.0 | 0.00 | 0.22 | 0.22 | 57 | 1012.9 |
| 20260905182411 | 92 | 221 | 2.0 | 2.0 | 0.00 | 0.22 | 0.22 | 56 | 1012.8 |
| 20260905181907 | 90 | 46 | 1.0 | 1.0 | 0.00 | 0.22 | 0.22 | 57 | 1013.1 |
| 20260905181407 | 89 | 181 | 2.0 | 5.0 | 0.00 | 0.22 | 0.22 | 61 | 1012.9 |
| 20260905180905 | 90 | 211 | 3.0 | 5.0 | 0.00 | 0.22 | 0.22 | 61 | 1013.3 |
| 20260905180401 | 90 | 240 | 3.0 | 5.0 | 0.00 | 0.22 | 0.22 | 56 | 1013.1 |
| 20260905175856 | 89 | 250 | 3.0 | 2.0 | 0.00 | 0.22 | 0.22 | 64 | 1013.3 |
| 20260905175355 | 89 | 285 | 4.0 | 5.0 | 0.00 | 0.22 | 0.22 | 59 | 1013.3 |
| 20260905174850 | 89 | 140 | 3.0 | 5.0 | 0.00 | 0.22 | 0.22 | 59 | 1013.3 |
| 20260905174346 | 90 | 221 | 3.0 | 3.0 | 0.00 | 0.22 | 0.22 | 59 | 1013.4 |
| 20260905173842 | 88 | 255 | 2.0 | 6.0 | 0.00 | 0.22 | 0.22 | 59 | 1013.5 |
| 20260905173337 | 89 | 200 | 3.0 | 3.0 | 0.00 | 0.22 | 0.22 | 60 | 1013.4 |
| 20260905172832 | 88 | 170 | 4.0 | 6.0 | 0.00 | 0.22 | 0.22 | 62 | 1013.2 |
| 20260905172330 | 89 | 250 | 3.0 | 5.0 | 0.00 | 0.22 | 0.22 | 59 | 1013.4 |
| 20260905171827 | 88 | 240 | 5.0 | 6.0 | 0.00 | 0.22 | 0.22 | 59 | 1013.4 |
| 20260905171323 | 87 | 143 | 4.0 | 6.0 | 0.00 | 0.22 | 0.22 | 57 | 1013.5 |
| 20260905170819 | 87 | 186 | 4.0 | 7.0 | 0.00 | 0.22 | 0.22 | 60 | 1013.6 |
| 20260905170315 | 87 | 187 | 4.0 | 6.0 | 0.00 | 0.22 | 0.22 | 60 | 1013.6 |
| 20260905165814 | 87 | 167 | 5.0 | 6.0 | 0.00 | 0.22 | 0.22 | 60 | 1013.6 |
| 20260905165310 | 88 | 218 | 3.0 | 6.0 | 0.00 | 0.22 | 0.22 | 65 | 1013.8 |
| 20260905164809 | 88 | 244 | 6.0 | 6.0 | 0.00 | 0.22 | 0.22 | 59 | 1013.9 |
| 20260905164304 | 86 | 155 | 3.0 | 5.0 | 0.00 | 0.22 | 0.22 | 58 | 1013.8 |
| 20260905163800 | 87 | 149 | 3.0 | 6.0 | 0.00 | 0.22 | 0.22 | 58 | 1014.1 |
| 20260905163256 | 86 | 120 | 5.0 | 7.0 | 0.00 | 0.22 | 0.22 | 61 | 1014.3 |
| 20260905162752 | 86 | 198 | 4.0 | 5.0 | 0.00 | 0.22 | 0.22 | 61 | 1014.3 |
| 20260905162251 | 86 | 104 | 2.0 | 3.0 | 0.00 | 0.22 | 0.22 | 62 | 1014.1 |
| 20260905161746 | 86 | 126 | 3.0 | 7.0 | 0.00 | 0.22 | 0.22 | 62 | 1014.3 |
| 20260905161245 | 85 | 114 | 5.0 | 8.0 | 0.00 | 0.22 | 0.22 | 63 | 1014.1 |
| 20260905160743 | 85 | 123 | 8.0 | 9.0 | 0.00 | 0.22 | 0.22 | 63 | 1014.0 |
| 20260905160237 | 85 | 119 | 6.0 | 9.0 | 0.00 | 0.22 | 0.22 | 65 | 1014.0 |
| 20260905155733 | 85 | 134 | 6.0 | 7.0 | 0.00 | 0.22 | 0.22 | 63 | 1013.9 |
| 20260905155231 | 85 | 107 | 5.0 | 7.0 | 0.00 | 0.22 | 0.22 | 62 | 1014.1 |
| 20260905154725 | 84 | 97 | 7.0 | 8.0 | 0.00 | 0.22 | 0.22 | 66 | 1014.2 |
| 20260905154222 | 84 | 94 | 4.0 | 7.0 | 0.00 | 0.22 | 0.22 | 67 | 1014.3 |
| 20260905153717 | 84 | 93 | 5.0 | 7.0 | 0.00 | 0.22 | 0.22 | 71 | 1014.3 |
| 20260905153213 | 83 | 95 | 4.0 | 8.0 | 0.00 | 0.22 | 0.22 | 67 | 1014.1 |
| 20260905152707 | 83 | 124 | 6.0 | 9.0 | 0.00 | 0.22 | 0.22 | 69 | 1014.1 |
| 20260905152202 | 82 | 138 | 7.0 | 8.0 | 0.00 | 0.22 | 0.22 | 70 | 1014.1 |
| 20260905151701 | 82 | 176 | 6.0 | 7.0 | 0.00 | 0.22 | 0.22 | 73 | 1014.1 |
| 20260905151157 | 81 | 112 | 4.0 | 6.0 | 0.00 | 0.22 | 0.22 | 73 | 1014.2 |
| 20260905150652 | 81 | 213 | 3.0 | 8.0 | 0.00 | 0.22 | 0.22 | 74 | 1014.3 |
| 20260905150151 | 80 | 101 | 2.0 | 6.0 | 0.00 | 0.22 | 0.22 | 76 | 1014.0 |
| 20260905145649 | 81 | 99 | 6.0 | 6.0 | 0.00 | 0.22 | 0.22 | 75 | 1014.3 |
| 20260905145149 | 81 | 122 | 2.0 | 3.0 | 0.00 | 0.22 | 0.22 | 77 | 1014.6 |
| 20260905144643 | 80 | 163 | 2.0 | 5.0 | 0.00 | 0.22 | 0.22 | 78 | 1014.6 |
| 20260905144142 | 80 | 93 | 3.0 | 5.0 | 0.00 | 0.22 | 0.22 | 80 | 1014.7 |
| 20260905143638 | 79 | 105 | 3.0 | 3.0 | 0.00 | 0.22 | 0.22 | 76 | 1014.7 |
| 20260905143137 | 79 | 73 | 1.0 | 6.0 | 0.00 | 0.22 | 0.22 | 78 | 1014.8 |
| 20260905142631 | 79 | 67 | 3.0 | 5.0 | 0.00 | 0.22 | 0.22 | 77 | 1014.9 |
| 20260905142130 | 78 | 101 | 5.0 | 6.0 | 0.00 | 0.22 | 0.22 | 78 | 1015.0 |
| 20260905141625 | 78 | 140 | 5.0 | 6.0 | 0.00 | 0.22 | 0.22 | 78 | 1014.9 |
| 20260905141121 | 78 | 107 | 6.0 | 7.0 | 0.00 | 0.22 | 0.22 | 78 | 1015.0 |
| 20260905140616 | 77 | 109 | 8.0 | 8.0 | 0.00 | 0.22 | 0.22 | 81 | 1014.9 |
| 20260905140115 | 77 | 123 | 7.0 | 7.0 | 0.00 | 0.22 | 0.22 | 82 | 1014.9 |
| 20260905135611 | 76 | 93 | 3.0 | 8.0 | 0.00 | 0.22 | 0.22 | 83 | 1014.9 |
| 20260905135106 | 76 | 98 | 3.0 | 7.0 | 0.00 | 0.22 | 0.22 | 84 | 1014.9 |
| 20260905134601 | 76 | 143 | 7.0 | 8.0 | 0.00 | 0.22 | 0.22 | 83 | 1015.2 |
| 20260905134059 | 75 | 122 | 8.0 | 9.0 | 0.00 | 0.22 | 0.22 | 83 | 1014.9 |
| 20260905133555 | 75 | 97 | 2.0 | 8.0 | 0.00 | 0.22 | 0.22 | 86 | 1015.0 |
| 20260905133054 | 75 | 103 | 7.0 | 10.0 | 0.00 | 0.22 | 0.22 | 87 | 1015.3 |
| 20260905132548 | 74 | 89 | 5.0 | 7.0 | 0.00 | 0.22 | 0.22 | 88 | 1015.3 |
| 20260905132043 | 72 | 74 | 2.0 | 6.0 | 0.00 | 0.22 | 0.22 | 93 | 1015.6 |
| 20260905131539 | 71 | 64 | 2.0 | 5.0 | 0.00 | 0.22 | 0.22 | 99 | 1015.7 |
| 20260905131034 | 70 | 105 | 5.0 | 7.0 | 0.00 | 0.22 | 0.22 | 99 | 1015.6 |
| 20260905130533 | 69 | 110 | 6.0 | 8.0 | 0.00 | 0.22 | 0.22 | 99 | 1015.6 |
| 20260905130029 | 69 | 133 | 7.0 | 9.0 | 0.00 | 0.22 | 0.22 | 99 | 1015.6 |
| 20260905125528 | 69 | 114 | 4.0 | 5.0 | 0.00 | 0.22 | 0.22 | 99 | 1015.7 |
| 20260905125024 | 69 | 100 | 7.0 | 11.0 | 0.00 | 0.22 | 0.22 | 99 | 1015.8 |
| 20260905124520 | 70 | 87 | 10.0 | 6.0 | 0.00 | 0.22 | 0.22 | 99 | 1015.6 |
| 20260905124015 | 70 | 84 | 3.0 | 3.0 | 0.00 | 0.22 | 0.22 | 99 | 1015.2 |
| 20260905123510 | 70 | 42 | 1.0 | 3.0 | 0.00 | 0.22 | 0.22 | 99 | 1015.2 |
| 20260905123007 | 70 | 23 | 1.0 | 2.0 | 0.00 | 0.22 | 0.22 | 99 | 1014.9 |
| 20260905122502 | 70 | 21 | 1.0 | 1.0 | 0.00 | 0.22 | 0.22 | 99 | 1015.0 |
| 20260905121956 | 70 | 41 | 1.0 | 2.0 | 0.00 | 0.22 | 0.22 | 99 | 1015.0 |
| 20260905121452 | 70 | 1 | 0.0 | 1.0 | 0.00 | 0.22 | 0.22 | 99 | 1015.2 |
| 20260905120950 | 69 | 88 | 1.0 | 2.0 | 0.00 | 0.22 | 0.22 | 99 | 1015.0 |
| 20260905120445 | 70 | 2 | 1.0 | 3.0 | 0.19 | 0.22 | 0.22 | 99 | 1015.3 |
| 20260905115940 | 69 | 154 | 2.0 | 2.0 | 0.19 | 0.22 | 0.22 | 99 | 1015.0 |
| 20260905115439 | 69 | 113 | 3.0 | 3.0 | 0.00 | 0.19 | 0.19 | 99 | 1014.7 |
| 20260905114929 | 70 | 73 | 1.0 | 2.0 | 0.00 | 0.19 | 0.19 | 99 | 1014.2 |
| 20260905114428 | 70 | 84 | 2.0 | 5.0 | 0.00 | 0.19 | 0.19 | 99 | 1014.1 |
| 20260905113922 | 70 | 83 | 1.0 | 3.0 | 0.00 | 0.19 | 0.19 | 99 | 1014.2 |
| 20260905113417 | 70 | 81 | 0.0 | 0.0 | 0.00 | 0.19 | 0.19 | 99 | 1014.2 |
| 20260905112913 | 69 | 64 | 0.0 | 2.0 | 0.00 | 0.19 | 0.19 | 99 | 1014.2 |
| 20260905112408 | 69 | 100 | 2.0 | 3.0 | 0.00 | 0.19 | 0.19 | 99 | 1014.0 |
| 20260905111902 | 69 | 78 | 1.0 | 2.0 | 0.00 | 0.19 | 0.19 | 99 | 1014.1 |
| 20260905111356 | 69 | 115 | 3.0 | 3.0 | 0.00 | 0.19 | 0.19 | 99 | 1013.9 |
| 20260905110856 | 69 | 42 | 0.0 | 2.0 | 0.00 | 0.19 | 0.19 | 99 | 1014.1 |
| 20260905110350 | 69 | 57 | 2.0 | 5.0 | 0.00 | 0.19 | 0.19 | 99 | 1014.1 |
| 20260905105845 | 69 | 115 | 4.0 | 3.0 | 0.00 | 0.19 | 0.19 | 99 | 1014.1 |
| 20260905105345 | 69 | 85 | 1.0 | 3.0 | 0.00 | 0.19 | 0.19 | 99 | 1014.1 |
| 20260905104839 | 69 | 44 | 2.0 | 3.0 | 0.00 | 0.19 | 0.19 | 99 | 1013.8 |
| 20260905104336 | 69 | 92 | 1.0 | 2.0 | 0.00 | 0.19 | 0.19 | 99 | 1013.8 |
| 20260905103834 | 69 | 87 | 1.0 | 3.0 | 0.00 | 0.19 | 0.19 | 99 | 1013.7 |
| 20260905095126 | 70 | 316 | 22.0 | 26.0 | 1.13 | 0.19 | 0.19 | 99 | 1014.3 |
| 20260905094622 | 70 | 316 | 22.0 | 26.0 | 1.13 | 0.19 | 0.19 | 99 | 1014.3 |
| 20260905094120 | 77 | 267 | 17.0 | 27.0 | 0.12 | 0.02 | 0.02 | 90 | 1013.4 |
| 20260905093614 | 76 | 313 | 10.0 | 15.0 | 0.00 | 0.00 | 0.00 | 90 | 1013.7 |
| 20260905093111 | 76 | 262 | 6.0 | 5.0 | 0.00 | 0.00 | 0.00 | 98 | 1013.4 |
| 20260905092605 | 76 | 329 | 1.0 | 2.0 | 0.00 | 0.00 | 0.00 | 98 | 1013.1 |
| 20260905092102 | 76 | 19 | 0.0 | 3.0 | 0.00 | 0.00 | 0.00 | 98 | 1012.9 |
| 20260905091600 | 76 | 356 | 0.0 | 0.0 | 0.00 | 0.00 | 0.00 | 98 | 1012.6 |
| 20260905091054 | 76 | 339 | 5.0 | 5.0 | 0.00 | 0.00 | 0.00 | 97 | 1012.6 |
| 20260905090549 | 75 | 348 | 0.0 | 1.0 | 0.00 | 0.00 | 0.00 | 99 | 1012.7 |
| 20260905090044 | 75 | 280 | 1.0 | 1.0 | 0.00 | 0.00 | 0.00 | 99 | 1012.6 |
| 20260905085543 | 73 | 288 | 1.0 | 2.0 | 0.00 | 0.00 | 0.00 | 99 | 1012.9 |
| 20260905085039 | 73 | 5 | 0.0 | 0.0 | 0.00 | 0.00 | 0.00 | 99 | 1012.4 |
| 20260905084538 | 74 | 359 | 1.0 | 1.0 | 0.00 | 0.00 | 0.00 | 99 | 1012.6 |
| 20260905084032 | 74 | 170 | 1.0 | 1.0 | 0.00 | 0.00 | 0.00 | 99 | 1012.5 |
| 20260905083522 | 74 | 24 | 0.0 | 0.0 | 0.00 | 0.00 | 0.00 | 99 | 1012.4 |
| 20260905083019 | 74 | 5 | 0.0 | 0.0 | 0.00 | 0.00 | 0.00 | 98 | 1012.7 |
| 20260905082514 | 75 | 9 | 0.0 | 0.0 | 0.00 | 0.00 | 0.00 | 98 | 1012.4 |
| 20260905082010 | 75 | 352 | 0.0 | 1.0 | 0.00 | 0.00 | 0.00 | 99 | 1012.2 |
| 20260905081509 | 75 | 329 | 0.0 | 0.0 | 0.00 | 0.00 | 0.00 | 99 | 1012.5 |
| 20260905081009 | 74 | 343 | 0.0 | 0.0 | 0.00 | 0.00 | 0.00 | 99 | 1012.3 |
| 20260905080458 | 74 | 25 | 0.0 | 0.0 | 0.00 | 0.00 | 0.00 | 99 | 1012.3 |
| 20260905075957 | 74 | 9 | 0.0 | 0.0 | 0.00 | 0.00 | 0.00 | 99 | 1012.2 |
| 20260905075452 | 74 | 0 | 0.0 | 0.0 | 0.00 | 0.00 | 0.00 | 99 | 1012.2 |
| 20260905074950 | 74 | 0 | 0.0 | 0.0 | 0.00 | 0.00 | 0.00 | 99 | 1012.5 |
| 20260905074446 | 74 | 359 | 0.0 | 0.0 | 0.00 | 0.00 | 0.00 | 99 | 1012.4 |
| 20260905073942 | 74 | 353 | 0.0 | 0.0 | 0.00 | 0.00 | 0.00 | 99 | 1012.5 |
| 20260905073436 | 74 | 353 | 0.0 | 0.0 | 0.00 | 0.00 | 0.00 | 99 | 1012.6 |
| 20260905072932 | 75 | 353 | 0.0 | 0.0 | 0.00 | 0.00 | 0.00 | 99 | 1012.5 |
| 20260905072427 | 75 | 353 | 0.0 | 0.0 | 0.00 | 0.00 | 0.00 | 99 | 1012.7 |
| 20260905071923 | 75 | 353 | 0.0 | 0.0 | 0.00 | 0.00 | 0.00 | 99 | 1012.7 |
| 20260905071419 | 75 | 352 | 0.0 | 0.0 | 0.00 | 0.00 | 0.00 | 99 | 1012.8 |
| 20260905070918 | 74 | 353 | 0.0 | 0.0 | 0.00 | 0.00 | 0.00 | 99 | 1012.8 |
| 20260905070415 | 74 | 8 | 0.0 | 0.0 | 0.00 | 0.00 | 0.00 | 99 | 1012.9 |
| 20260905065909 | 74 | 12 | 0.0 | 0.0 | 0.00 | 0.00 | 0.00 | 99 | 1013.0 |
| 20260905065407 | 75 | 32 | 0.0 | 0.0 | 0.00 | 0.00 | 0.00 | 99 | 1013.2 |
| 20260905064903 | 75 | 33 | 0.0 | 0.0 | 0.00 | 0.00 | 0.00 | 99 | 1012.9 |
| 20260905064357 | 75 | 20 | 0.0 | 0.0 | 0.00 | 0.00 | 0.00 | 99 | 1013.2 |
| 20260905063856 | 75 | 18 | 0.0 | 0.0 | 0.00 | 0.00 | 0.00 | 98 | 1013.2 |
| 20260905063352 | 76 | 19 | 0.0 | 0.0 | 0.00 | 0.00 | 0.00 | 98 | 1013.3 |
| 20260905062848 | 75 | 14 | 0.0 | 0.0 | 0.00 | 0.00 | 0.00 | 99 | 1013.2 |
| 20260905062343 | 75 | 24 | 0.0 | 1.0 | 0.00 | 0.00 | 0.00 | 99 | 1013.5 |
| 20260905061837 | 75 | 1 | 0.0 | 0.0 | 0.00 | 0.00 | 0.00 | 99 | 1013.6 |
| 20260905061332 | 76 | 6 | 0.0 | 0.0 | 0.00 | 0.00 | 0.00 | 99 | 1013.7 |
| 20260905060826 | 76 | 3 | 0.0 | 0.0 | 0.00 | 0.00 | 0.00 | 99 | 1013.4 |
| 20260905060323 | 76 | 347 | 0.0 | 0.0 | 0.00 | 0.00 | 0.00 | 99 | 1013.6 |
| 20260905055822 | 75 | 4 | 0.0 | 0.0 | 0.00 | 0.00 | 0.00 | 98 | 1013.6 |
| 20260905055317 | 76 | 8 | 0.0 | 0.0 | 0.00 | 0.00 | 0.00 | 98 | 1013.9 |
| 20260905054816 | 76 | 54 | 0.0 | 1.0 | 0.00 | 0.00 | 0.00 | 99 | 1013.6 |
| 20260905054313 | 76 | 65 | 0.0 | 1.0 | 0.00 | 0.00 | 0.00 | 99 | 1013.8 |
| 20260905053812 | 76 | 9 | 0.0 | 0.0 | 0.00 | 0.00 | 0.00 | 99 | 1013.7 |
| 20260905053308 | 76 | 347 | 0.0 | 0.0 | 0.00 | 0.00 | 0.00 | 99 | 1013.8 |
| 20260905052808 | 75 | 22 | 0.0 | 0.0 | 0.00 | 0.00 | 0.00 | 99 | 1013.6 |
| 20260905052306 | 76 | 38 | 0.0 | 0.0 | 0.00 | 0.00 | 0.00 | 99 | 1013.6 |
| 20260905051801 | 76 | 37 | 0.0 | 0.0 | 0.00 | 0.00 | 0.00 | 99 | 1013.9 |
| 20260905051258 | 76 | 14 | 0.0 | 0.0 | 0.00 | 0.00 | 0.00 | 98 | 1013.6 |
| 20260905050755 | 76 | 51 | 0.0 | 1.0 | 0.00 | 0.00 | 0.00 | 99 | 1013.6 |
| 20260905050251 | 76 | 68 | 0.0 | 1.0 | 0.00 | 0.00 | 0.00 | 99 | 1013.5 |
| 20260905045751 | 75 | 4 | 0.0 | 0.0 | 0.00 | 0.00 | 0.00 | 99 | 1013.7 |
| 20260905045246 | 76 | 357 | 1.0 | 1.0 | 0.00 | 0.00 | 0.00 | 99 | 1013.8 |
| 20260905044741 | 76 | 17 | 0.0 | 0.0 | 0.00 | 0.00 | 0.00 | 99 | 1014.0 |
| 20260905044237 | 76 | 80 | 1.0 | 1.0 | 0.00 | 0.00 | 0.00 | 98 | 1013.9 |
| 20260905043735 | 76 | 23 | 0.0 | 0.0 | 0.00 | 0.00 | 0.00 | 97 | 1013.9 |
| 20260905043236 | 77 | 11 | 0.0 | 0.0 | 0.00 | 0.00 | 0.00 | 96 | 1013.9 |
| 20260905042730 | 77 | 11 | 0.0 | 0.0 | 0.00 | 0.00 | 0.00 | 96 | 1013.9 |
| 20260905042230 | 77 | 5 | 0.0 | 0.0 | 0.00 | 0.00 | 0.00 | 96 | 1013.8 |
| 20260905041725 | 77 | 357 | 0.0 | 0.0 | 0.00 | 0.00 | 0.00 | 95 | 1013.9 |
| 20260905041221 | 77 | 343 | 0.0 | 0.0 | 0.00 | 0.00 | 0.00 | 95 | 1013.7 |
| 20260905040715 | 78 | 359 | 0.0 | 0.0 | 0.00 | 0.00 | 0.00 | 94 | 1013.9 |
| 20260905040215 | 78 | 5 | 0.0 | 0.0 | 0.00 | 0.00 | 0.00 | 93 | 1013.8 |
| 20260905035714 | 78 | 6 | 1.0 | 2.0 | 0.00 | 0.00 | 0.00 | 93 | 1013.7 |
| 20260905035211 | 79 | 359 | 0.0 | 1.0 | 0.00 | 0.00 | 0.00 | 92 | 1013.8 |
| 20260905034707 | 79 | 354 | 1.0 | 1.0 | 0.00 | 0.00 | 0.00 | 91 | 1013.9 |
| 20260905034207 | 78 | 345 | 0.0 | 1.0 | 0.00 | 0.00 | 0.00 | 92 | 1013.9 |
| 20260905033705 | 79 | 333 | 0.0 | 1.0 | 0.00 | 0.00 | 0.00 | 92 | 1013.8 |
| 20260905033201 | 79 | 197 | 1.0 | 2.0 | 0.00 | 0.00 | 0.00 | 91 | 1014.1 |
| 20260905032655 | 78 | 63 | 0.0 | 1.0 | 0.00 | 0.00 | 0.00 | 93 | 1014.1 |
| 20260905032150 | 79 | 0 | 0.0 | 0.0 | 0.00 | 0.00 | 0.00 | 95 | 1014.4 |
| 20260905031646 | 79 | 18 | 0.0 | 0.0 | 0.00 | 0.00 | 0.00 | 95 | 1014.1 |
| 20260905031141 | 79 | 7 | 1.0 | 1.0 | 0.00 | 0.00 | 0.00 | 95 | 1014.1 |
| 20260905030636 | 79 | 5 | 0.0 | 0.0 | 0.00 | 0.00 | 0.00 | 96 | 1014.1 |
| 20260905030131 | 79 | 356 | 1.0 | 2.0 | 0.00 | 0.00 | 0.00 | 97 | 1014.2 |
| 20260905025626 | 79 | 350 | 2.0 | 2.0 | 0.00 | 0.00 | 0.00 | 96 | 1014.0 |
| 20260905025122 | 79 | 353 | 0.0 | 0.0 | 0.00 | 0.00 | 0.00 | 97 | 1014.0 |
| 20260905024618 | 79 | 2 | 0.0 | 0.0 | 0.00 | 0.00 | 0.00 | 97 | 1013.9 |
| 20260905024113 | 78 | 2 | 0.0 | 0.0 | 0.00 | 0.00 | 0.00 | 98 | 1014.1 |
| 20260905023608 | 78 | 2 | 0.0 | 0.0 | 0.00 | 0.00 | 0.00 | 97 | 1013.9 |
| 20260905023102 | 78 | 11 | 0.0 | 0.0 | 0.00 | 0.00 | 0.00 | 96 | 1013.8 |
| 20260905022601 | 78 | 19 | 0.0 | 0.0 | 0.00 | 0.00 | 0.00 | 96 | 1014.0 |
| 20260905022057 | 79 | 21 | 0.0 | 0.0 | 0.00 | 0.00 | 0.00 | 95 | 1013.9 |
| 20260905021557 | 79 | 15 | 0.0 | 0.0 | 0.00 | 0.00 | 0.00 | 94 | 1013.9 |
| 20260905021052 | 79 | 15 | 0.0 | 0.0 | 0.00 | 0.00 | 0.00 | 94 | 1013.8 |
| 20260905020551 | 79 | 32 | 0.0 | 1.0 | 0.00 | 0.00 | 0.00 | 93 | 1013.7 |
| 20260905020047 | 79 | 2 | 0.0 | 0.0 | 0.00 | 0.00 | 0.00 | 92 | 1013.7 |
| 20260905015544 | 80 | 0 | 1.0 | 1.0 | 0.00 | 0.00 | 0.00 | 91 | 1013.5 |
| 20260905015039 | 81 | 5 | 0.0 | 0.0 | 0.00 | 0.00 | 0.00 | 90 | 1013.6 |
| 20260905014534 | 81 | 358 | 0.0 | 0.0 | 0.00 | 0.00 | 0.00 | 89 | 1013.4 |
| 20260905014024 | 81 | 352 | 1.0 | 1.0 | 0.00 | 0.00 | 0.00 | 89 | 1013.7 |
| 20260905013520 | 81 | 347 | 1.0 | 1.0 | 0.00 | 0.00 | 0.00 | 90 | 1013.4 |
| 20260905013016 | 80 | 359 | 0.0 | 0.0 | 0.00 | 0.00 | 0.00 | 92 | 1013.4 |
| 20260905012510 | 80 | 12 | 0.0 | 0.0 | 0.00 | 0.00 | 0.00 | 92 | 1013.3 |
| 20260905012007 | 81 | 7 | 0.0 | 0.0 | 0.00 | 0.00 | 0.00 | 91 | 1013.2 |
| 20260905011503 | 81 | 358 | 0.0 | 0.0 | 0.00 | 0.00 | 0.00 | 90 | 1013.2 |
| 20260905010958 | 81 | 1 | 1.0 | 1.0 | 0.00 | 0.00 | 0.00 | 91 | 1013.3 |
| 20260905010458 | 81 | 341 | 1.0 | 1.0 | 0.00 | 0.00 | 0.00 | 90 | 1013.4 |
| 20260905005954 | 81 | 35 | 0.0 | 0.0 | 0.00 | 0.00 | 0.00 | 90 | 1013.2 |
| 20260905005449 | 82 | 134 | 2.0 | 2.0 | 0.00 | 0.00 | 0.00 | 86 | 1013.2 |
| 20260905004944 | 82 | 6 | 0.0 | 0.0 | 0.00 | 0.00 | 0.00 | 85 | 1013.0 |
| 20260905004440 | 83 | 2 | 0.0 | 0.0 | 0.00 | 0.00 | 0.00 | 85 | 1012.9 |
| 20260905003934 | 83 | 6 | 0.0 | 0.0 | 0.00 | 0.00 | 0.00 | 83 | 1012.9 |
| 20260905003430 | 83 | 8 | 0.0 | 0.0 | 0.00 | 0.00 | 0.00 | 81 | 1012.9 |
| 20260905002926 | 84 | 8 | 0.0 | 0.0 | 0.00 | 0.00 | 0.00 | 81 | 1012.8 |
| 20260905002425 | 85 | 11 | 0.0 | 0.0 | 0.00 | 0.00 | 0.00 | 80 | 1012.9 |
| 20260905001920 | 86 | 10 | 0.0 | 0.0 | 0.00 | 0.00 | 0.00 | 80 | 1012.8 |
| 20260905001415 | 86 | 26 | 0.0 | 0.0 | 0.00 | 0.00 | 0.00 | 76 | 1012.8 |
| 20260905000910 | 87 | 358 | 0.0 | 0.0 | 0.00 | 0.00 | 0.00 | 74 | 1012.8 |
| 20260905000405 | 88 | 353 | 0.0 | 1.0 | 0.00 | 0.00 | 0.00 | 73 | 1012.7 |
| 20260904235900 | 89 | 340 | 0.0 | 1.0 | 0.00 | 0.00 | 0.00 | 70 | 1012.8 |
| 20260904235355 | 90 | 287 | 1.0 | 1.0 | 0.00 | 0.00 | 0.00 | 68 | 1012.7 |
| 20260904234850 | 90 | 324 | 1.0 | 1.0 | 0.00 | 0.00 | 0.00 | 68 | 1012.7 |